Stündliche Wetter Kzyl-Aul

Heute, 14 Mai, Freitag

Zeit Temperatur Niederschläge Wind Luftdruck Luftfeuchtigkeit
00:00 +18°C° 0 mm 2 m/S 757 mmHg 72%
01:00 +17°C° 0 mm 2 m/S 757 mmHg 74%
02:00 +17°C° 0 mm 2 m/S 757 mmHg 76%
03:00 +17°C° 0 mm 3 m/S 757 mmHg 77%
04:00 +17°C° 0 mm 3 m/S 757 mmHg 77%
05:00 +17°C° 0 mm 3 m/S 757 mmHg 77%
06:00 +17°C° 0 mm 3 m/S 757 mmHg 77%
07:00 +19°C° 0 mm 4 m/S 757 mmHg 70%
08:00 +21°C° 0 mm 5 m/S 757 mmHg 62%
09:00 +23°C° 0 mm 6 m/S 757 mmHg 55%
10:00 +24°C° 0 mm 6 m/S 756 mmHg 51%
11:00 +27°C° 0 mm 6 m/S 756 mmHg 48%
12:00 +28°C° 0 mm 7 m/S 756 mmHg 44%
13:00 +28°C° 0 mm 7 m/S 756 mmHg 44%
14:00 +29°C° 0 mm 7 m/S 756 mmHg 43%
15:00 +30°C° 0 mm 7 m/S 755 mmHg 43%
16:00 +29°C° 0 mm 6 m/S 755 mmHg 47%
17:00 +28°C° 0 mm 5 m/S 755 mmHg 50%
18:00 +28°C° 0 mm 4 m/S 755 mmHg 54%
19:00 +26°C° 0 mm 4 m/S 755 mmHg 57%
20:00 +23°C° 0 mm 4 m/S 755 mmHg 60%
21:00 +22°C° 0 mm 4 m/S 755 mmHg 63%
22:00 +21°C° 0 mm 4 m/S 755 mmHg 61%
23:00 +20°C° 0 mm 4 m/S 755 mmHg 59%

Morgen, 15 Mai, Samstag

Zeit Temperatur Niederschläge Wind Luftdruck Luftfeuchtigkeit
00:00 +19°C° 0 mm 4 m/S 755 mmHg 57%
01:00 +18°C° 0 mm 4 m/S 755 mmHg 57%
02:00 +18°C° 0 mm 4 m/S 756 mmHg 56%
03:00 +17°C° 0 mm 4 m/S 756 mmHg 56%
04:00 +17°C° 0 mm 4 m/S 756 mmHg 57%
05:00 +17°C° 0 mm 4 m/S 756 mmHg 58%
06:00 +17°C° 0 mm 4 m/S 756 mmHg 59%
07:00 +19°C° 0 mm 4 m/S 756 mmHg 53%
08:00 +21°C° 0 mm 5 m/S 756 mmHg 47%
09:00 +23°C° 0 mm 5 m/S 756 mmHg 41%
10:00 +25°C° 0 mm 5 m/S 756 mmHg 39%
11:00 +27°C° 0 mm 6 m/S 756 mmHg 36%
12:00 +28°C° 0 mm 6 m/S 756 mmHg 34%
13:00 +29°C° 0 mm 6 m/S 756 mmHg 33%
14:00 +29°C° 0 mm 6 m/S 756 mmHg 33%
15:00 +30°C° 0 mm 6 m/S 756 mmHg 32%
16:00 +29°C° 0 mm 4 m/S 755 mmHg 38%
17:00 +29°C° 0 mm 3 m/S 755 mmHg 43%
18:00 +28°C° 0 mm 2 m/S 755 mmHg 49%
19:00 +26°C° 0 mm 1 m/S 755 mmHg 52%
20:00 +24°C° 0 mm 1 m/S 755 mmHg 54%
21:00 +22°C° 0 mm 1 m/S 755 mmHg 57%
22:00 +21°C° 0 mm 2 m/S 755 mmHg 56%
23:00 +20°C° 0 mm 3 m/S 755 mmHg 54%

übermorgen, 16 Mai, Sonntag

Zeit Temperatur Niederschläge Wind Luftdruck Luftfeuchtigkeit
00:00 +19°C° 0 mm 3 m/S 755 mmHg 53%
01:00 +18°C° 0 mm 3 m/S 755 mmHg 51%
02:00 +18°C° 0 mm 3 m/S 755 mmHg 50%
03:00 +17°C° 0 mm 3 m/S 755 mmHg 49%
04:00 +17°C° 0 mm 3 m/S 755 mmHg 53%
05:00 +17°C° 0 mm 3 m/S 755 mmHg 57%
06:00 +17°C° 0 mm 3 m/S 756 mmHg 61%
07:00 +19°C° 0 mm 4 m/S 756 mmHg 55%
08:00 +22°C° 0 mm 4 m/S 756 mmHg 50%
09:00 +25°C° 0 mm 5 m/S 756 mmHg 45%
10:00 +27°C° 0 mm 5 m/S 755 mmHg 41%
11:00 +28°C° 0 mm 5 m/S 755 mmHg 37%
12:00 +30°C° 0 mm 5 m/S 755 mmHg 33%
13:00 +30°C° 0 mm 5 m/S 755 mmHg 32%
14:00 +32°C° 0 mm 6 m/S 754 mmHg 31%
15:00 +33°C° 0 mm 6 m/S 754 mmHg 29%
16:00 +32°C° 0 mm 5 m/S 754 mmHg 34%
17:00 +30°C° 0 mm 4 m/S 753 mmHg 39%
18:00 +29°C° 0 mm 3 m/S 753 mmHg 44%
19:00 +27°C° 0 mm 3 m/S 753 mmHg 45%
20:00 +26°C° 0 mm 4 m/S 753 mmHg 47%
21:00 +23°C° 0 mm 4 m/S 753 mmHg 49%
22:00 +22°C° 0 mm 4 m/S 753 mmHg 49%
23:00 +21°C° 0 mm 4 m/S 753 mmHg 50%

17 Mai, Montag

Zeit Temperatur Niederschläge Wind Luftdruck Luftfeuchtigkeit
00:00 +20°C° 0 mm 4 m/S 754 mmHg 50%
01:00 +20°C° 0 mm 4 m/S 753 mmHg 50%
02:00 +19°C° 0 mm 4 m/S 753 mmHg 51%
03:00 +19°C° 0 mm 4 m/S 753 mmHg 51%
04:00 +18°C° 0 mm 4 m/S 753 mmHg 52%
05:00 +18°C° 0 mm 4 m/S 753 mmHg 53%
06:00 +17°C° 0 mm 5 m/S 753 mmHg 54%
07:00 +20°C° 0 mm 5 m/S 753 mmHg 50%
08:00 +22°C° 0 mm 6 m/S 753 mmHg 46%
09:00 +24°C° 0 mm 6 m/S 753 mmHg 42%
10:00 +27°C° 0 mm 7 m/S 753 mmHg 38%
11:00 +29°C° 0 mm 8 m/S 753 mmHg 34%
12:00 +32°C° 0 mm 8 m/S 753 mmHg 31%
13:00 +32°C° 0 mm 8 m/S 752 mmHg 30%
14:00 +33°C° 0 mm 7 m/S 752 mmHg 29%
15:00 +33°C° 0 mm 7 m/S 752 mmHg 28%
16:00 +32°C° 0 mm 6 m/S 752 mmHg 32%
17:00 +29°C° 0 mm 5 m/S 752 mmHg 36%
18:00 +28°C° 0 mm 5 m/S 752 mmHg 40%
19:00 +27°C° 0 mm 5 m/S 752 mmHg 40%
20:00 +25°C° 0 mm 5 m/S 753 mmHg 40%
21:00 +22°C° 0 mm 5 m/S 753 mmHg 40%
22:00 +21°C° 0 mm 4 m/S 753 mmHg 41%
23:00 +20°C° 0 mm 4 m/S 753 mmHg 42%

18 Mai, Dienstag

Zeit Temperatur Niederschläge Wind Luftdruck Luftfeuchtigkeit
00:00 +19°C° 0 mm 3 m/S 753 mmHg 43%
01:00 +19°C° 0 mm 3 m/S 753 mmHg 44%
02:00 +18°C° 0 mm 3 m/S 753 mmHg 45%
03:00 +18°C° 0 mm 3 m/S 753 mmHg 45%
04:00 +18°C° 0 mm 2 m/S 754 mmHg 48%
05:00 +18°C° 0 mm 2 m/S 754 mmHg 50%
06:00 +18°C° 0 mm 2 m/S 754 mmHg 52%
07:00 +20°C° 0 mm 2 m/S 754 mmHg 47%
08:00 +23°C° 0 mm 2 m/S 754 mmHg 41%
09:00 +25°C° 0 mm 2 m/S 754 mmHg 36%
10:00 +26°C° 0 mm 2 m/S 754 mmHg 33%
11:00 +28°C° 0 mm 1 m/S 754 mmHg 31%
12:00 +29°C° 0 mm 1 m/S 754 mmHg 29%
13:00 +28°C° 0 mm 2 m/S 754 mmHg 32%
14:00 +28°C° 0 mm 2 m/S 754 mmHg 35%
15:00 +28°C° 0 mm 3 m/S 754 mmHg 39%
16:00 +27°C° 0 mm 3 m/S 754 mmHg 47%
17:00 +25°C° 0 mm 4 m/S 754 mmHg 56%
18:00 +23°C° 0 mm 4 m/S 754 mmHg 64%
19:00 +22°C° 0 mm 4 m/S 754 mmHg 67%
20:00 +21°C° 0 mm 3 m/S 755 mmHg 70%
21:00 +20°C° 0 mm 3 m/S 755 mmHg 72%
22:00 +20°C° 0 mm 3 m/S 755 mmHg 75%
23:00 +19°C° 0 mm 3 m/S 755 mmHg 78%

19 Mai, Mittwoch

Zeit Temperatur Niederschläge Wind Luftdruck Luftfeuchtigkeit
00:00 +19°C° 0 mm 3 m/S 755 mmHg 81%
01:00 +18°C° 0 mm 3 m/S 755 mmHg 81%
02:00 +18°C° 0 mm 3 m/S 755 mmHg 82%
03:00 +18°C° 0 mm 3 m/S 755 mmHg 82%
04:00 +18°C° 0 mm 2 m/S 756 mmHg 80%
05:00 +19°C° 0 mm 2 m/S 756 mmHg 79%
06:00 +19°C° 0 mm 2 m/S 756 mmHg 77%
07:00 +20°C° 0 mm 2 m/S 756 mmHg 71%
08:00 +23°C° 0 mm 2 m/S 756 mmHg 65%
09:00 +24°C° 0 mm 2 m/S 756 mmHg 60%
10:00 +26°C° 0 mm 2 m/S 756 mmHg 53%
11:00 +27°C° 0 mm 2 m/S 756 mmHg 47%
12:00 +29°C° 0 mm 2 m/S 756 mmHg 41%
13:00 +29°C° 0 mm 2 m/S 756 mmHg 40%
14:00 +29°C° 0 mm 2 m/S 756 mmHg 39%
15:00 +29°C° 0 mm 3 m/S 755 mmHg 38%
16:00 +29°C° 0 mm 2 m/S 755 mmHg 43%
17:00 +28°C° 0 mm 2 m/S 755 mmHg 47%
18:00 +27°C° 0 mm 2 m/S 755 mmHg 51%
19:00 +26°C° 0 mm 2 m/S 755 mmHg 53%
20:00 +24°C° 0 mm 2 m/S 755 mmHg 55%
21:00 +22°C° 0 mm 3 m/S 755 mmHg 57%
22:00 +21°C° 0 mm 3 m/S 755 mmHg 56%
23:00 +20°C° 0 mm 3 m/S 755 mmHg 56%
Mehr zeigen

Wir brauchen deine Erlaubnis

Meteoprog und unser Service Anbieter werden persönliche Daten aufbewahren, so wie Cookies, Geräte Bezeichnung oder ähnliche Technologien von deinem Gerät und Prozess, so wie Persönliche Daten Inhalte und Werbungen, genauso wie social Media und den Verkehr zu analysieren.

  • Aufbewahrung und/oder Zugang zu deiner Geräte Informationen.

    Cookies, Geräte Bezeichnung oder andere Informationen, können aufbewahrt oder Zugang zu deinem Gerät erhalten, für den Grund, der oben angegeben wird.

  • Personalisierte Werbung und Inhalte, Messungen, Einblick in das Publikum und Produkt Entwicklung.

    Werbungen und Inhalte können personalisiert werden, basierend auf ein Profil. Mehr Daten können besser personalisierte Werbungen und Inhalte hinzufügen. Werbung und Inhalte können gezeigt und gemessen werden. Einblicke über das Publikum, welche die Werbung gesehen haben und den Inhalt, können abgeleitet werden. So wie Daten können genutzt werden, um es zu verbessern oder die Benutzer Erfahrung zu verbessern das System und die Software.

Wenn du “Ich stimme zu” klickst, erlaubst du uns, die Cookies zu benutzen die Geräte Bezeichnung, den Web oder ähnliche Technologien zu benutzen. Deine Settings, können in deinem Gerät bei deinem Browser geändert werden.

Für den bestimmten Zweck, berechtigten Interessen beruhen darauf, mehr als auf den Inhalt. Du kannst mehr darüber in unseren Privaten und Cookie Politik lesen.